Regional Weather Roundup
Issued by NWS Huntsville, AL

Home | Current Version | Previous Version | Text Only | Print | Product List | Glossary On
Versions: 1 2 3 4 5 6 7 8 9 10 11 12 13 14 15 16 17 18 19 20 21 22 23 24 25 26 27 28 29 30 31 32 33 34 35 36 37 38 39 40 41 42 43 44 45 46 47 48 49 50
000
ASUS44 KHUN 282010
RWRHUN

WEATHER ROUNDUP FOR THE TENNESSEE VALLEY
NATIONAL WEATHER SERVICE HUNTSVILLE AL
200 PM CST WED JAN 28 2015

ALZ001>004-282100-
NORTHWEST ALABAMA

CITY           SKY/WX    TMP DP  RH WIND       PRES   REMARKS
SHOALS AIRPORT SUNNY     50  29  44 VRB5      30.26F
$$

ALZ005>007-016-282100-
NORTH CENTRAL ALABAMA

CITY           SKY/WX    TMP DP  RH WIND       PRES   REMARKS
DECATUR AP     SUNNY     50  28  42 VRB5      30.25F
HUNTSVILLE AP  MOSUNNY   52  26  36 S3        30.24F
HUN NWS/UAH      N/A     52  23  31 SE5         N/A
MERIDIANVILLE  SUNNY     50  16  25 S6        30.24F
REDSTONE ARSN  SUNNY     52  25  35 VRB3      30.24F
VINEMONT AP    FAIR      51  28  41 E3        30.25F
$$

ALZ008>010-282100-
NORTHEAST ALABAMA

CITY           SKY/WX    TMP DP  RH WIND       PRES   REMARKS
ALBERTVILLE    SUNNY     52  32  46 E3        30.23F
FORT PAYNE     SUNNY     50  12  22 CALM      30.23F
SCOTTSBORO AP  SUNNY     50  21  32 E3        30.26F
VALLEY HEAD      N/A     50 N/A N/A MISG        N/A
$$

TNZ076-096-097-282100-
SOUTHEASTERN MIDDLE TENNESSEE

CITY           SKY/WX    TMP DP  RH WIND       PRES   REMARKS
TULLAHOMA      SUNNY     48  19  32 SW3       30.24F
WINCHESTER     SUNNY     50  21  32 E5        30.24F
$$

...SURROUNDING SITES...

CITY           SKY/WX    TMP DP  RH WIND       PRES   REMARKS
ATLANTA        MOSUNNY   54  23  30 CALM      30.22F
ANNISTON       SUNNY     55  26  32 CALM      30.24F
BIRMINGHAM     MOSUNNY   56  24  29 NE7       30.25F
CHATTANOOGA    MOSUNNY   47  17  30 N7        30.27F
CORINTH        FAIR      55  28  35 SE6       30.23F
DALTON         SUNNY     46  21  36 CALM      30.25F
GADSDEN        SUNNY     52  23  32 E7        30.25F
GOLDEN TRNGL   SUNNY     55  32  41 CALM      30.25F
HALEYVILLE       N/A     53  26  35 CALM      30.26F
JACKSON TN     SUNNY     54  27  35 S7        30.21F
LEWISBURG      FAIR      49  25  39 E5        30.24F
MEMPHIS        MOSUNNY   58  30  34 SE7       30.18F
MURFREESBORO   FAIR      48  20  33 CALM      30.25F
NASHVILLE      MOSUNNY   49  24  37 SE8       30.25F
OXFORD MS      FAIR      57  28  33 SE10      30.22F
ROME           SUNNY     52  20  28 N5        30.24F
SAVANNAH       SUNNY     52  28  40 VRB5      30.24F
TUPELO         SUNNY     54  31  41 SW8       30.24F
TUSCALOOSA     SUNNY     56  27  32 VRB3      30.26F
$$

...GULF COAST WEATHER...

CITY           SKY/WX    TMP DP  RH WIND       PRES   REMARKS
GULFPORT       SUNNY     59  40  49 SE8       30.23F
PASCAGOULA     SUNNY     67  25  20 N6        30.23F
MOBILE         SUNNY     65  24  21 N6        30.23F
GULF SHORES    CLEAR     59  40  50 CALM      30.23F
PENSACOLA      MOSUNNY   59  38  45 S7        30.23F
DESTIN         SUNNY     61  32  33 NE6       30.23F
PANAMA CITY    SUNNY     59  33  37 N7        30.24R
APPALACHICOLA  SUNNY     57  38  48 SE10      30.23S
$$



USA.gov is the U.S. government's official web portal to all federal, state and local government web resources and services.